Regional Weather Roundup
Issued by NWS

Home | Current Version | Previous Version | Text Only | Print | Product List | Glossary On
Versions: 1 2 3 4 5 6 7 8 9 10 11 12 13 14 15 16 17 18 19 20 21 22 23 24 25 26 27 28 29 30 31 32 33 34 35 36 37 38 39 40 41 42 43 44 45 46 47 48 49 50
000
ASUS43 KMPX 290101
RWRMN
WEATHER ROUNDUP FOR MINNESOTA
NATIONAL WEATHER SERVICE TWIN CITIES/CHANHASSEN MN
800 PM CDT FRI AUG 28 2015


NOTE: "FAIR" INDICATES FEW OR NO CLOUDS BELOW 12,000 FEET WITH NO
SIGNIFICANT WEATHER AND/OR OBSTRUCTIONS TO VISIBILITY. N/A MEANS
CURRENT SKY AND/OR WEATHER CONDITIONS ARE NOT AVAILABLE.

MNZ060>063-068>070-290200-
   Twin Cities Metro

CITY           SKY/WX    TMP DP  RH WIND       PRES   REMARKS
TWIN CITIES    MOCLDY    65  57  75 SE6       30.02R
ST PAUL        CLEAR     64  57  78 S9        30.02R
CRYSTAL        MOCLDY    68  57  68 SE12      29.99R
LAKEVILLE      CLEAR     61  57  88 E3        30.02R
EDEN PRAIRIE   CLEAR     66  58  75 S9        30.01R
SOUTH ST PAUL  CLEAR     65  56  75 SE5       30.02R
LAKE ELMO      FAIR      63  57  82 SE3       30.03S
$$
MNZ001>005-007-008-013>017-022>024-027-028-290200-
   Northwest Minnesota

CITY           SKY/WX    TMP DP  RH WIND       PRES   REMARKS
BEMIDJI        PTCLDY    73  64  73 S6        29.91S
HALLOCK        CLEAR     79  72  78 CALM      29.81S
ROSEAU         PTCLDY    75  70  83 SW5       29.84R
WARROAD        MOCLDY    75  72  88 SW5       29.85R
THIEF RVR FALL MOCLDY   N/A N/A N/A S9        29.86S
CROOKSTON      CLEAR     77  68  73 SW8       29.87R
FOSSTON        PTCLDY    72  64  78 S8        29.91R
DETROIT LAKES  CLEAR     72  64  78 S10       29.95R
MOORHEAD       CLEAR     75  66  73 S12       29.90R
PARK RAPIDS    PTCLDY    73  63  70 S7        29.94R
MAHNOMEN       FAIR      72  65  79 SW8       29.91R
$$
MNZ006-009>011-018-025>026-290200-
   North Central Minnesota

CITY           SKY/WX    TMP DP  RH WIND       PRES   REMARKS
BAUDETTE       PTCLDY    75  66  73 SW9       29.83F
FLAG ISLAND    PTCLDY    70  66  88 CALM      29.83S
INTL FALLS     MOCLDY    74  66  76 SW10      29.84R
WASKISH        PTCLDY    72  64  78 SW7       29.88S
BIG FORK       MOCLDY    73  64  73 SW9       29.90S
LONGVILLE      CLEAR     72  64  78 S6        29.94S
GRAND RAPIDS     N/A     72  63  73 S7        29.94S
CRANE LAKE     MOCLDY    72  68  88 S2        29.87F
ORR            MOCLDY    73  63  68 S5        29.87R
COOK           PTCLDY    73  63  68 S5        29.90F
WALKER         FAIR      73  63  72 S6        29.92S
$$
MNZ012-019>021-037-290200-
   Northeast Minnesota

CITY           SKY/WX    TMP DP  RH WIND       PRES   REMARKS
DULUTH         PTCLDY    71  60  68 SW10      29.97R
ELY            MOCLDY    72  63  73 SW7       29.91F
HIBBING        MOCLDY    72  63  73 VRB6      29.93S
EVELETH        PTCLDY    72  63  73 SW10      29.95R
DULUTH HARBOR  PTCLDY    73  63  68 SW9       29.96R
TWO HARBORS    PTCLDY    73  66  78 SW5       29.94R
SILVER BAY     MOCLDY    73  64  73 S6        29.92R
GRAND MARAIS     N/A     56  53  90 E3        29.91R
G MARAIS ARPRT PTCLDY    64  61  88 S7        29.94F
$$
MNZ029>031-032-039>041-046>048-054>057-064-290200-
   West Central Minnesota

CITY           SKY/WX    TMP DP  RH WIND       PRES   REMARKS
FERGUS FALLS   CLEAR     72  64  78 S8        29.94R
WHEATON        CLEAR     68  63  83 S10       29.96R
MORRIS         CLEAR     68  64  88 S8        29.96S
ALEXANDRIA     CLEAR     69  62  78 S14       30.00R
ELBOW LAKE     FAIR      69  64  83 S9        29.96R
WADENA         CLEAR     72  63  73 S8        29.96R
GLENWOOD       CLEAR     66  63  88 S8        30.00S
APPLETON       CLEAR     70  63  78 S6        29.97S
BENSON         CLEAR     66  61  82 S5        29.99R
ORTONVILLE     CLEAR     70  63  78 SE7       29.97R
MADISON        CLEAR     66  63  88 S5        29.99R
WILLMAR        FAIR      66  63  88 CALM      30.02R
$$
MNZ033>034-036-042>043-049>051-058-059-290200-
   Central Minnesota

CITY           SKY/WX    TMP DP  RH WIND       PRES   REMARKS
ST CLOUD       CLEAR     67  61  81 S7        29.99R
SAUK CENTRE    FAIR      67  61  82 S6        29.99S
PAYNESVILLE    CLEAR     67  60  78 SE5       30.01R
AITKIN         PTCLDY    72  63  73 S6        29.95S
PINE RIVER     CLEAR     72  64  78 S5        29.99R
BRAINERD       PTCLDY    71  63  75 S10       29.97R
STAPLES        PTCLDY    70  61  73 S9        29.97R
LONG PRAIRIE   FAIR      68  61  77 S9        30.00R
LITTLE FALLS   CLEAR     70  59  68 S6        29.99R
LITCHFIELD     CLEAR     66  63  88 SE3       30.01R
BUFFALO        CLEAR     67  58  73 S5        30.01S
MAPLE LAKE     CLEAR     67  62  84 CALM      30.02R
$$
MNZ037-044-045-052-053-290200-
   East Central Minnesota

CITY           SKY/WX    TMP DP  RH WIND       PRES   REMARKS
PRINCETON      PTCLDY    70  61  73 S5        30.01R
MORA           MOCLDY    70  61  73 S7        30.01R
CAMBRIDGE      PTCLDY    70  57  64 S3        30.00R
RUSH CITY      CLEAR     67  61  80 S5        30.01R
MOOSE LAKE     PTCLDY    68  61  77 S5        29.96S
HINCKLEY       MOCLDY    70  63  78 S5        30.00R
CLOQUET        PTCLDY    70  61  73 S5        29.98R
MCGREGOR       PTCLDY    72  61  68 S8        29.97S
$$
MNZ071>073-080-081-089-090-097-098-290200-
   Southwest Minnesota

CITY           SKY/WX    TMP DP  RH WIND       PRES   REMARKS
MONTEVIDEO     CLEAR     66  61  82 S6        30.01R
GRANITE FALLS  CLEAR     64  60  86 SE3       30.01S
CANBY          CLEAR     66  62  86 SE6       30.00R
MARSHALL       CLEAR     64  55  72 SE6       30.01S
REDWOOD FALLS  MOCLDY    66  59  78 SE6       30.00R
OLIVIA         CLEAR     63  55  77 SE6       29.99S
PIPESTONE      CLEAR     63  57  82 E5        30.00S
WINDOM         CLOUDY    63  55  77 E9        30.00R
WORTHINGTON    CLOUDY    61  55  82 E9        30.00R
JACKSON        CLOUDY    61  57  88 E9        30.00R
TRACY          CLOUDY    66  60  82 SE5       30.01R
SLAYTON        CLOUDY    63  58  84 CALM      30.02R
$$
MNZ065>067-074>077-082>085-091>093-290200-
   South Central Minnesota

CITY           SKY/WX    TMP DP  RH WIND       PRES   REMARKS
MANKATO        CLEAR     63  54  72 E8        30.00S
NEW ULM        PTCLDY    64  57  77 E5        30.00R
ST JAMES       MOCLDY    63  57  82 E8        30.01R
FAIRMONT       CLOUDY    61  52  72 E9        29.99R
GLENCOE        CLEAR     65  60  82 SE5       30.00S
FARIBAULT      CLEAR     63  55  77 E7        30.01S
OWATONNA       CLEAR     61  55  82 E8        30.01R
WASECA         CLEAR     59  54  82 MISG      30.01R
ALBERT LEA     CLOUDY    61  57  88 E14       29.98S
$$
MNZ078>079-086>088-094>096-290200-
   Southeast Minnesota

CITY           SKY/WX    TMP DP  RH WIND       PRES   REMARKS
ROCHESTER      CLOUDY    58  56  93 SE14      30.02S
RED WING       CLEAR     63  55  77 SE9       30.02R
STANTON        CLEAR     63  56  78 E3        30.01R
DODGE CENTER   PTCLDY    57  55  94 E9        30.00F
WINONA         CLOUDY    59  57  94 E7        30.04S
AUSTIN         CLOUDY    61  57  88 E13       29.99S
PRESTON        CLOUDY    57  55  92 E10       30.03S FOG
$$
ABBREVIATIONS USED IN REMARKS
   TC - TEMPERATURES IN CELSIUS
  WCI - WIND CHILL INDEX
   HX - HEAT INDEX
  VSB - VISIBILITY
$$


USA.gov is the U.S. government's official web portal to all federal, state and local government web resources and services.